Terug naar catalogus

STARLINK-37549

ActiefCommunicatieSSO
NORAD 69351·PAYLOAD·🇺🇸 United States

Gelanceerd Jun 3, 2026 vanaf Vandenberg Space Force Base

Loading…

Volgende Passages (komende 24 uur)

TLE

VersSource: CelesTrak SupGP

Epoch: Sep 15, 2026, 03:22 UTC

1 69351C 26122Y   26258.14076389 -.00030624  00000+0 -95112-3 0  2583
2 69351  97.2823 286.8993 0001368  92.2499 212.6747 15.33439111    16

Volg STARLINK-37549 in realtime met AllMySat

Download on the App Store